STARLINK-1557, 46034

Orbit data source: Space-Track

STARLINK-1557, 46034 is a payload satellite owned by SpaceX/Seattle (US) in LEO that was launched on Fri, 07 Aug 2020 UTC via an FALCON 9 launch vehicle from the Air Force Eastern Test Range (AFETR). Payload-class satellites include a variety of spacecraft equipped with specific instruments for various scientific and technological missions. These include communications satellites like Starlink; space stations such as the ISS; scientific satellites like the Hubble; Earth observation satellites from companies like Planet Labs, Umbra, and HawkEye 360; GPS; miniature CubeSats for education and research; and military/defense satellites.

Loading next visibility...
Identifier
46034, 2020-055H
Orbit
LEO
Country
Flag of USUS
Related business
Manufacturer
SpaceX/Seattle
Mission
Operational Commercial Communications
Bus & Motor
STARLINK, Unknown motor
Mass
260 kg wet, ~248 kg dry
Launch date (UTC)
2020-08-07 (6 years ago)
Launch vehicle
FALCON 9
Launch site
Air Force Eastern Test Range (AFETR)
Object type
Payload
Rocket body
Debris
Shape & HBR
Box + 1 Pan, 10.1 m
Radar Cross Section
13.562 m², Large (>1 m²)

Expand to show TLE details & history
Last TLE update: 12 hours ago

TLE from 12 hours ago
0 STARLINK-1557
1 46034U 20055H   26227.40952246  .00001203  00000-0  50518-4 0  9999
2 46034  53.1600 108.8930 0001220  78.7762 281.3377 15.31705145333175
Epoch: 2026-08-15T09:49Z
TLE epoch observation values (Epoch: 2026-08-15T09:49:42.740Z)
Latitude
0.00002°
Longitude
-2.35588°
Altitude
471.461 km
Speed
7.632 km/s
True Right ascension
07h 15m 34s
True Declination
0° 00' 00"
Sunlit
Object was in daylight at epoch
Visualization orbit readout
Latitude
Unknown
Longitude
Unknown
Altitude
Unknown
Speed
Unknown
Apparent Right ascension
Unknown
Apparent Declination
Unknown
Sunlit
N/A
Visualization observer readout
Local Sidereal Time
12:52:24
Azimuth
Unknown
Elevation
Unknown
Doppler factor
Unknown
Orbital elements
Apogee altitude
471.817 km
Perigee altitude
470.146 km
Semi-major axis
6,849.118 km
Eccentricity
0.00012
Inclination
53.16°
RAAN
108.893°
Arg. of periapsis
78.7762°
True anomaly
281.32399°
Mean anomaly
281.3377°
Eccentric anomaly
281.33085°
Mean motion
3.82905 °/min
Orbital period
94.02 mins
BSTAR
0.000050518
Loading maneuver chart data...
Computing Atmospheric mass density...
Loading historical data...
Loading historical data...
Loading historical data...
Loading historical data...
Loading historical data...
Loading historical data...
Loading historical data...

Documentation

Showing up to 5 results
|